When you browse on this site, cookies collect data to enhance your experience and personalize the content and advertising you see.
Visit our Privacy Policy to learn more. By continuing to use the site, you agree to this use of cookies and data.
  • In Schweiz
  • Länderverzeichnis
  • Für 7 Tage
  • Wassertemperatur
  • Wetterkarte
  • Widgets
  • user-avatar
    Anmelden

    Stündliche Wetter Valuevo

    Heute, 31 Mai, Sonntag

    Zeit Temperatur Niederschläge Wind Luftdruck Luftfeuchtigkeit
    00:00 +13°C° 0 mm 2 m/S 740 mmHg 95%
    01:00 +12°C° 0 mm 2 m/S 740 mmHg 95%
    02:00 +12°C° 0 mm 2 m/S 740 mmHg 95%
    03:00 +12°C° 0 mm 2 m/S 740 mmHg 95%
    04:00 +12°C° 0 mm 2 m/S 740 mmHg 95%
    05:00 +13°C° 0 mm 2 m/S 740 mmHg 95%
    06:00 +14°C° 0 mm 2 m/S 740 mmHg 91%
    07:00 +16°C° 0 mm 2 m/S 740 mmHg 87%
    08:00 +17°C° 0 mm 2 m/S 740 mmHg 83%
    09:00 +17°C° 1.1 mm 2 m/S 740 mmHg 81%
    10:00 +18°C° 1.1 mm 3 m/S 740 mmHg 80%
    11:00 +19°C° 1.1 mm 3 m/S 741 mmHg 79%
    12:00 +18°C° 2.2 mm 4 m/S 741 mmHg 82%
    13:00 +16°C° 2.2 mm 5 m/S 741 mmHg 84%
    14:00 +15°C° 2.2 mm 5 m/S 741 mmHg 87%
    15:00 +14°C° 1.4 mm 6 m/S 741 mmHg 88%
    16:00 +13°C° 1.4 mm 6 m/S 741 mmHg 89%
    17:00 +10°C° 1.4 mm 6 m/S 741 mmHg 89%
    18:00 +10°C° 0.7 mm 6 m/S 741 mmHg 89%
    19:00 +9°C° 0.7 mm 5 m/S 742 mmHg 89%
    20:00 +9°C° 0.7 mm 5 m/S 742 mmHg 89%
    21:00 +9°C° 0.1 mm 5 m/S 742 mmHg 90%
    22:00 +9°C° 0.1 mm 5 m/S 742 mmHg 92%
    23:00 +9°C° 0.1 mm 5 m/S 742 mmHg 93%

    Morgen, 1 Juni, Montag

    Zeit Temperatur Niederschläge Wind Luftdruck Luftfeuchtigkeit
    00:00 +8°C° 0.6 mm 5 m/S 742 mmHg 93%
    01:00 +8°C° 0.6 mm 5 m/S 742 mmHg 93%
    02:00 +8°C° 0.6 mm 6 m/S 742 mmHg 93%
    03:00 +7°C° 0.6 mm 5 m/S 742 mmHg 94%
    04:00 +7°C° 0.6 mm 5 m/S 742 mmHg 94%
    05:00 +7°C° 0.6 mm 5 m/S 741 mmHg 95%
    06:00 +7°C° 0.5 mm 5 m/S 742 mmHg 95%
    07:00 +7°C° 0.5 mm 5 m/S 742 mmHg 95%
    08:00 +7°C° 0.5 mm 5 m/S 742 mmHg 95%
    09:00 +8°C° 0.6 mm 5 m/S 742 mmHg 93%
    10:00 +8°C° 0.6 mm 5 m/S 743 mmHg 92%
    11:00 +8°C° 0.6 mm 5 m/S 743 mmHg 91%
    12:00 +10°C° 0.7 mm 4 m/S 743 mmHg 90%
    13:00 +10°C° 0.7 mm 4 m/S 743 mmHg 90%
    14:00 +11°C° 0.7 mm 4 m/S 743 mmHg 89%
    15:00 +10°C° 0.2 mm 4 m/S 742 mmHg 90%
    16:00 +9°C° 0.2 mm 5 m/S 742 mmHg 92%
    17:00 +9°C° 0.2 mm 5 m/S 742 mmHg 93%
    18:00 +9°C° 0.1 mm 6 m/S 742 mmHg 93%
    19:00 +9°C° 0.1 mm 6 m/S 742 mmHg 94%
    20:00 +9°C° 0.1 mm 6 m/S 742 mmHg 94%
    21:00 +9°C° 0.2 mm 6 m/S 742 mmHg 95%
    22:00 +9°C° 0.2 mm 6 m/S 741 mmHg 95%
    23:00 +9°C° 0.2 mm 7 m/S 741 mmHg 96%

    übermorgen, 2 Juni, Dienstag

    Zeit Temperatur Niederschläge Wind Luftdruck Luftfeuchtigkeit
    00:00 +9°C° 1.8 mm 7 m/S 741 mmHg 96%
    01:00 +9°C° 1.8 mm 7 m/S 740 mmHg 97%
    02:00 +9°C° 1.8 mm 7 m/S 740 mmHg 97%
    03:00 +9°C° 1.3 mm 7 m/S 740 mmHg 97%
    04:00 +9°C° 1.3 mm 7 m/S 740 mmHg 96%
    05:00 +9°C° 1.3 mm 7 m/S 739 mmHg 96%
    06:00 +10°C° 0.1 mm 6 m/S 740 mmHg 95%
    07:00 +11°C° 0.1 mm 6 m/S 740 mmHg 95%
    08:00 +13°C° 0.1 mm 5 m/S 740 mmHg 94%
    09:00 +13°C° 0.4 mm 5 m/S 741 mmHg 94%
    10:00 +13°C° 0.4 mm 5 m/S 741 mmHg 94%
    11:00 +13°C° 0.4 mm 5 m/S 741 mmHg 94%
    12:00 +13°C° 0.5 mm 6 m/S 741 mmHg 93%
    13:00 +14°C° 0.5 mm 6 m/S 741 mmHg 92%
    14:00 +14°C° 0.5 mm 6 m/S 741 mmHg 91%
    15:00 +14°C° 0.2 mm 6 m/S 741 mmHg 91%
    16:00 +14°C° 0.2 mm 6 m/S 741 mmHg 91%
    17:00 +15°C° 0.2 mm 6 m/S 740 mmHg 90%
    18:00 +14°C° 0.3 mm 7 m/S 740 mmHg 92%
    19:00 +14°C° 0.3 mm 7 m/S 740 mmHg 93%
    20:00 +12°C° 0.3 mm 7 m/S 740 mmHg 94%
    21:00 +12°C° 0.1 mm 7 m/S 740 mmHg 95%
    22:00 +11°C° 0.1 mm 6 m/S 740 mmHg 95%
    23:00 +11°C° 0.1 mm 6 m/S 740 mmHg 96%

    3 Juni, Mittwoch

    Zeit Temperatur Niederschläge Wind Luftdruck Luftfeuchtigkeit
    00:00 +11°C° 0.1 mm 6 m/S 740 mmHg 96%
    01:00 +12°C° 0.1 mm 5 m/S 740 mmHg 97%
    02:00 +12°C° 0.1 mm 4 m/S 740 mmHg 97%
    03:00 +12°C° 0 mm 4 m/S 740 mmHg 97%
    04:00 +12°C° 0 mm 3 m/S 740 mmHg 97%
    05:00 +13°C° 0 mm 2 m/S 741 mmHg 97%
    06:00 +14°C° 0 mm 2 m/S 741 mmHg 94%
    07:00 +14°C° 0 mm 2 m/S 741 mmHg 91%
    08:00 +15°C° 0 mm 2 m/S 741 mmHg 89%
    09:00 +16°C° 0 mm 2 m/S 741 mmHg 82%
    10:00 +17°C° 0 mm 3 m/S 742 mmHg 76%
    11:00 +17°C° 0 mm 3 m/S 742 mmHg 70%
    12:00 +18°C° 0 mm 3 m/S 742 mmHg 67%
    13:00 +18°C° 0 mm 2 m/S 742 mmHg 65%
    14:00 +18°C° 0 mm 2 m/S 741 mmHg 62%
    15:00 +18°C° 0 mm 2 m/S 741 mmHg 63%
    16:00 +18°C° 0 mm 2 m/S 741 mmHg 65%
    17:00 +18°C° 0 mm 2 m/S 741 mmHg 66%
    18:00 +16°C° 0 mm 1 m/S 741 mmHg 71%
    19:00 +15°C° 0 mm 1 m/S 741 mmHg 76%
    20:00 +12°C° 0 mm 0 m/S 742 mmHg 81%
    21:00 +12°C° 0 mm 0 m/S 742 mmHg 82%
    22:00 +11°C° 0 mm 0 m/S 742 mmHg 83%
    23:00 +11°C° 0 mm 0 m/S 742 mmHg 83%

    4 Juni, Donnerstag

    Zeit Temperatur Niederschläge Wind Luftdruck Luftfeuchtigkeit
    00:00 +11°C° 0 mm 0 m/S 742 mmHg 83%
    01:00 +11°C° 0 mm 0 m/S 742 mmHg 82%
    02:00 +11°C° 0 mm 0 m/S 742 mmHg 82%
    03:00 +11°C° 0 mm 0 m/S 742 mmHg 83%
    04:00 +13°C° 0 mm 1 m/S 742 mmHg 85%
    05:00 +13°C° 0 mm 1 m/S 742 mmHg 86%
    06:00 +14°C° 0 mm 1 m/S 742 mmHg 82%
    07:00 +14°C° 0 mm 0 m/S 742 mmHg 79%
    08:00 +16°C° 0 mm 0 m/S 742 mmHg 75%
    09:00 +18°C° 0.1 mm 1 m/S 742 mmHg 72%
    10:00 +19°C° 0.1 mm 1 m/S 742 mmHg 69%
    11:00 +20°C° 0.1 mm 1 m/S 742 mmHg 66%
    12:00 +20°C° 0.3 mm 1 m/S 741 mmHg 67%
    13:00 +20°C° 0.3 mm 1 m/S 741 mmHg 69%
    14:00 +19°C° 0.3 mm 2 m/S 741 mmHg 70%
    15:00 +18°C° 0.3 mm 2 m/S 741 mmHg 71%
    16:00 +18°C° 0.3 mm 2 m/S 741 mmHg 73%
    17:00 +18°C° 0.3 mm 2 m/S 740 mmHg 75%
    18:00 +18°C° 0.2 mm 1 m/S 740 mmHg 79%
    19:00 +15°C° 0.2 mm 1 m/S 740 mmHg 83%
    20:00 +14°C° 0.2 mm 1 m/S 740 mmHg 87%
    21:00 +13°C° 0 mm 1 m/S 740 mmHg 88%
    22:00 +13°C° 0 mm 2 m/S 740 mmHg 90%
    23:00 +12°C° 0 mm 2 m/S 740 mmHg 91%

    5 Juni, Freitag

    Zeit Temperatur Niederschläge Wind Luftdruck Luftfeuchtigkeit
    00:00 +12°C° 0 mm 2 m/S 740 mmHg 92%
    01:00 +10°C° 0 mm 2 m/S 739 mmHg 93%
    02:00 +10°C° 0 mm 2 m/S 739 mmHg 94%
    03:00 +10°C° 0 mm 2 m/S 739 mmHg 94%
    04:00 +12°C° 0 mm 2 m/S 739 mmHg 94%
    05:00 +12°C° 0 mm 2 m/S 739 mmHg 94%
    06:00 +13°C° 0 mm 2 m/S 739 mmHg 90%
    07:00 +14°C° 0 mm 3 m/S 739 mmHg 86%
    08:00 +16°C° 0 mm 3 m/S 739 mmHg 82%
    09:00 +17°C° 0.1 mm 3 m/S 739 mmHg 78%
    10:00 +18°C° 0.1 mm 3 m/S 739 mmHg 74%
    11:00 +19°C° 0.1 mm 3 m/S 739 mmHg 70%
    12:00 +19°C° 0.4 mm 3 m/S 739 mmHg 70%
    13:00 +19°C° 0.4 mm 3 m/S 738 mmHg 70%
    14:00 +19°C° 0.4 mm 3 m/S 738 mmHg 70%
    15:00 +19°C° 0.7 mm 3 m/S 738 mmHg 73%
    16:00 +18°C° 0.7 mm 3 m/S 738 mmHg 76%
    17:00 +18°C° 0.7 mm 3 m/S 738 mmHg 79%
    18:00 +16°C° 0.4 mm 3 m/S 738 mmHg 83%
    19:00 +15°C° 0.4 mm 2 m/S 738 mmHg 87%
    20:00 +13°C° 0.4 mm 2 m/S 738 mmHg 92%
    21:00 +13°C° 0 mm 2 m/S 738 mmHg 92%
    22:00 +12°C° 0 mm 2 m/S 738 mmHg 92%
    23:00 +12°C° 0 mm 2 m/S 739 mmHg 92%
    Mehr zeigen